Location: Unspecified
(0.0000°N, 0.0000°E)
Time: 01:18:08
(UTC+00:00)

Vanguard 3 - All Passes

Search period start: 21 September 2017 00:00
Search period end: 01 October 2017 00:00
Orbit: 509 x 3264 km, 33.3° (Epoch: 20 September)

Date Brightness Start Highest point End Pass type
(mag) Time Alt. Az. Time Alt. Az. Time Alt. Az.
21 Sep - 01:31:50 10° WSW 01:42:57 19° SSW 01:51:44 10° S visible
21 Sep - 08:29:09 10° SSW 08:32:45 24° SSE 08:35:51 10° E daylight
21 Sep - 10:41:23 10° W 10:44:14 21° NNW 10:47:25 10° NNE daylight
21 Sep - 17:25:04 10° N 17:33:35 19° NNE 17:44:28 10° ENE daylight
21 Sep - 19:35:15 10° NW 19:50:45 53° NE 20:09:56 10° ESE visible
21 Sep - 21:49:15 10° WNW 22:08:13 73° SW 22:26:40 10° SE visible
22 Sep - 00:09:47 10° W 00:25:59 31° SSW 00:39:01 10° SSE visible
22 Sep - 07:16:46 10° S 07:18:48 12° SSE 07:20:35 10° SE daylight
22 Sep - 09:27:01 10° WSW 09:30:58 65° NW 09:34:39 10° NE daylight
22 Sep - 18:21:47 10° NNW 18:34:09 35° NE 18:50:48 10° E visible
22 Sep - 20:33:43 10° NW 20:51:03 83° NE 21:10:57 10° SE visible
22 Sep - 22:50:30 10° WNW 23:08:50 46° SW 23:25:12 10° SE visible
23 Sep - 01:16:40 10° WSW 01:27:23 18° SSW 01:36:09 10° SSE visible
23 Sep - 08:13:14 10° SW 08:17:44 38° SSE 08:21:15 10° ENE daylight
23 Sep - 10:27:14 10° WNW 10:29:10 14° NNW 10:31:11 10° N daylight
23 Sep - 17:09:26 10° N 17:17:55 20° NE 17:29:09 10° ENE daylight
23 Sep - 19:19:23 10° NW 19:34:13 59° NE 19:53:48 10° ESE visible
23 Sep - 21:33:22 10° WNW 21:51:32 66° SW 22:10:27 10° SE visible
23 Sep - 23:54:19 10° W 00:09:57 28° SSW 00:23:07 10° SSE visible
24 Sep - 02:28:10 10° SSW 02:29:39 10° SSW 02:31:06 10° S visible
24 Sep - 06:59:40 10° SSW 07:03:52 19° SSE 07:07:05 10° ESE daylight
24 Sep - 09:11:51 10° WSW 09:15:52 41° NW 09:19:20 10° NE daylight
24 Sep - 18:06:02 10° NNW 18:17:57 38° NE 18:34:52 10° E visible
24 Sep - 20:17:53 10° NW 20:34:22 89° SW 20:54:37 10° SE visible
24 Sep - 22:34:51 10° W 22:52:26 42° SSW 23:09:02 10° SSE visible
25 Sep - 01:01:32 10° WSW 01:11:57 17° SSW 01:20:38 10° SSE visible
25 Sep - 05:46:10 10° S 05:49:13 12° SSE 05:51:46 10° SE daylight
25 Sep - 07:57:23 10° SW 08:02:42 60° SSE 08:06:29 10° ENE daylight
25 Sep - 16:53:48 10° N 17:02:10 22° NE 17:13:42 10° E daylight
25 Sep - 19:03:38 10° NW 19:17:42 66° NE 19:37:29 10° ESE visible
25 Sep - 21:17:41 10° WNW 21:34:57 59° SW 21:54:05 10° SE visible
25 Sep - 23:39:04 10° WSW 23:54:02 26° SSW 00:07:10 10° SSE visible
26 Sep - 02:11:09 10° SSW 02:14:40 11° SSW 02:17:53 10° S visible
26 Sep - 04:32:48 10° S 04:33:44 10° S 04:34:38 10° SSE visible
26 Sep - 06:43:04 10° SSW 06:48:56 28° SSE 06:52:55 10° E daylight
26 Sep - 08:56:47 10° W 09:00:42 28° NW 09:03:56 10° NNE daylight
26 Sep - 17:50:23 10° NNW 18:01:44 43° NE 18:18:45 10° ESE visible
26 Sep - 20:02:13 10° WNW 20:17:46 81° SW 20:38:07 10° SE visible
26 Sep - 22:19:26 10° W 22:36:09 37° SSW 22:52:47 10° SSE visible
27 Sep - 00:46:25 10° SW 00:56:35 16° SSW 01:05:16 10° SSE visible
27 Sep - 03:16:18 10° S 03:17:16 10° S 03:18:12 10° S visible
27 Sep - 05:28:34 10° SSW 05:34:19 18° SSE 05:38:30 10° ESE visible
27 Sep - 07:41:35 10° SW 07:47:35 90° WNW 07:51:34 10° NE daylight
27 Sep - 16:38:12 10° NNW 16:46:23 24° NE 16:58:05 10° E daylight
27 Sep - 18:48:00 10° NW 19:01:14 73° NE 19:21:00 10° ESE visible
27 Sep - 21:02:11 10° WNW 21:18:29 52° SSW 21:37:34 10° SE visible
27 Sep - 23:23:59 10° WSW 23:38:14 24° SSW 23:51:13 10° SSE visible
28 Sep - 01:54:19 10° SSW 01:59:43 12° S 02:04:26 10° SSE visible
28 Sep - 04:13:26 10° SSW 04:18:52 14° SSE 04:23:07 10° SE visible
28 Sep - 06:26:36 10° SW 06:33:55 41° SSE 06:38:26 10° E daylight
28 Sep - 08:41:49 10° W 08:45:27 21° NW 08:48:26 10° N daylight
28 Sep - 15:29:10 10° NNE 15:31:14 11° NE 15:33:31 10° NE daylight
28 Sep - 17:34:49 10° NNW 17:45:32 47° NE 18:02:29 10° ESE daylight
28 Sep - 19:46:42 10° WNW 20:01:17 72° SW 20:21:28 10° SE visible
28 Sep - 22:04:14 10° W 22:20:01 33° SSW 22:36:26 10° SSE visible
29 Sep - 00:31:14 10° SW 00:41:19 16° SSW 00:50:05 10° SSE visible
29 Sep - 02:56:48 10° SSW 03:02:23 13° S 03:07:00 10° SSE visible
29 Sep - 05:11:27 10° SSW 05:19:22 26° SSE 05:24:31 10° ESE visible
29 Sep - 07:25:47 10° WSW 07:32:23 64° NW 07:36:34 10° NE daylight
29 Sep - 16:22:38 10° NNW 16:30:33 27° NE 16:42:20 10° E daylight
29 Sep - 18:32:30 10° NW 18:44:51 82° NE 19:04:22 10° ESE visible
29 Sep - 20:46:52 10° W 21:02:11 46° SSW 21:20:56 10° SE visible
29 Sep - 23:09:03 10° WSW 23:22:35 22° SSW 23:35:17 10° SSE visible
30 Sep - 01:37:30 10° SSW 01:44:44 13° S 01:50:52 10° SSE visible
30 Sep - 03:55:46 10° SSW 04:03:54 19° SSE 04:09:41 10° ESE visible
30 Sep - 06:10:11 10° SW 06:18:47 57° SSE 06:23:47 10° ENE daylight
30 Sep - 08:26:59 10° W 08:30:09 16° NW 08:32:47 10° N daylight
30 Sep - 15:12:56 10° NNE 15:15:50 12° NE 15:19:11 10° ENE daylight
30 Sep - 17:19:20 10° NW 17:29:23 53° NE 17:46:05 10° ESE daylight
30 Sep - 19:31:21 10° WNW 19:44:57 64° SSW 20:04:41 10° SE visible
30 Sep - 21:49:14 10° WSW 22:04:03 30° SSW 22:20:00 10° SSE visible
